When you browse on this site, cookies collect data to enhance your experience and personalize the content and advertising you see.
Visit our Privacy Policy to learn more. By continuing to use the site, you agree to this use of cookies and data.
  • En España
  • Lista de países
  • Para 7 días
  • Temperatura del agua
  • Mapa Satelital
  • El tiempo en el mapa
  • Informadores
  • user-avatar
    Iniciar sesión

    Tiempo cada hora Elbasan

    Hoy, 23 Marzo, Sábado

    Tiempo Temperatura Precipitaciones Viento Presión Humedad
    00:00 +11°C° 0 mm 3 mps 740 mmHg 55%
    01:00 +11°C° 0 mm 3 mps 740 mmHg 55%
    02:00 +10°C° 0 mm 3 mps 740 mmHg 55%
    03:00 +10°C° 0 mm 3 mps 740 mmHg 54%
    04:00 +10°C° 0 mm 3 mps 740 mmHg 54%
    05:00 +10°C° 0 mm 3 mps 740 mmHg 53%
    06:00 +10°C° 0 mm 3 mps 740 mmHg 53%
    07:00 +11°C° 0 mm 4 mps 740 mmHg 49%
    08:00 +13°C° 0 mm 4 mps 739 mmHg 44%
    09:00 +16°C° 0 mm 3 mps 739 mmHg 39%
    10:00 +18°C° 0 mm 3 mps 739 mmHg 33%
    11:00 +19°C° 0 mm 3 mps 739 mmHg 32%
    12:00 +20°C° 0 mm 3 mps 739 mmHg 30%
    13:00 +23°C° 0 mm 2 mps 738 mmHg 29%
    14:00 +23°C° 0 mm 2 mps 738 mmHg 30%
    15:00 +23°C° 0 mm 2 mps 738 mmHg 31%
    16:00 +21°C° 0 mm 2 mps 737 mmHg 32%
    17:00 +19°C° 0 mm 2 mps 737 mmHg 38%
    18:00 +17°C° 0 mm 2 mps 738 mmHg 43%
    19:00 +15°C° 0 mm 2 mps 738 mmHg 49%
    20:00 +15°C° 0 mm 2 mps 738 mmHg 50%
    21:00 +14°C° 0 mm 2 mps 738 mmHg 50%
    22:00 +14°C° 0 mm 2 mps 738 mmHg 51%
    23:00 +13°C° 0 mm 2 mps 738 mmHg 53%

    Mañana, 24 Marzo, Domingo

    Tiempo Temperatura Precipitaciones Viento Presión Humedad
    00:00 +13°C° 0 mm 2 mps 738 mmHg 56%
    01:00 +12°C° 0 mm 2 mps 738 mmHg 58%
    02:00 +11°C° 0 mm 3 mps 738 mmHg 59%
    03:00 +11°C° 0 mm 3 mps 738 mmHg 61%
    04:00 +10°C° 0 mm 3 mps 738 mmHg 63%
    05:00 +11°C° 0 mm 3 mps 738 mmHg 62%
    06:00 +11°C° 0 mm 3 mps 739 mmHg 61%
    07:00 +12°C° 0 mm 3 mps 739 mmHg 60%
    08:00 +15°C° 0 mm 2 mps 739 mmHg 52%
    09:00 +17°C° 0 mm 2 mps 739 mmHg 44%
    10:00 +19°C° 0 mm 2 mps 739 mmHg 36%
    11:00 +20°C° 0 mm 2 mps 739 mmHg 33%
    12:00 +21°C° 0 mm 2 mps 738 mmHg 31%
    13:00 +23°C° 0 mm 1 mps 738 mmHg 29%
    14:00 +21°C° 0 mm 2 mps 738 mmHg 32%
    15:00 +21°C° 0 mm 2 mps 737 mmHg 35%
    16:00 +20°C° 0 mm 3 mps 737 mmHg 38%
    17:00 +18°C° 0 mm 2 mps 737 mmHg 46%
    18:00 +16°C° 0 mm 1 mps 737 mmHg 53%
    19:00 +13°C° 0 mm 0 mps 737 mmHg 61%
    20:00 +13°C° 0 mm 0 mps 737 mmHg 62%
    21:00 +12°C° 0 mm 0 mps 737 mmHg 62%
    22:00 +12°C° 0 mm 0 mps 737 mmHg 63%
    23:00 +12°C° 0 mm 0 mps 737 mmHg 63%

    Pasado mañana, 25 Marzo, Lunes

    Tiempo Temperatura Precipitaciones Viento Presión Humedad
    00:00 +11°C° 0 mm 0 mps 737 mmHg 63%
    01:00 +11°C° 0 mm 0 mps 737 mmHg 63%
    02:00 +11°C° 0 mm 0 mps 736 mmHg 63%
    03:00 +10°C° 0 mm 0 mps 736 mmHg 63%
    04:00 +10°C° 0 mm 0 mps 736 mmHg 64%
    05:00 +11°C° 0 mm 0 mps 735 mmHg 61%
    06:00 +12°C° 0 mm 0 mps 735 mmHg 59%
    07:00 +12°C° 0 mm 0 mps 735 mmHg 57%
    08:00 +15°C° 0 mm 1 mps 735 mmHg 51%
    09:00 +16°C° 0 mm 1 mps 735 mmHg 46%
    10:00 +18°C° 0 mm 2 mps 735 mmHg 40%
    11:00 +19°C° 0 mm 2 mps 734 mmHg 40%
    12:00 +19°C° 0 mm 3 mps 734 mmHg 40%
    13:00 +20°C° 0 mm 3 mps 733 mmHg 39%
    14:00 +19°C° 0 mm 3 mps 733 mmHg 43%
    15:00 +18°C° 0 mm 3 mps 732 mmHg 46%
    16:00 +18°C° 0 mm 3 mps 732 mmHg 49%
    17:00 +16°C° 0 mm 2 mps 732 mmHg 57%
    18:00 +14°C° 0 mm 1 mps 732 mmHg 65%
    19:00 +12°C° 0 mm 0 mps 731 mmHg 74%
    20:00 +11°C° 0 mm 0 mps 732 mmHg 73%
    21:00 +12°C° 0 mm 1 mps 732 mmHg 73%
    22:00 +11°C° 0 mm 1 mps 732 mmHg 73%
    23:00 +11°C° 0 mm 1 mps 731 mmHg 70%

    26 Marzo, Martes

    Tiempo Temperatura Precipitaciones Viento Presión Humedad
    00:00 +10°C° 0 mm 0 mps 731 mmHg 67%
    01:00 +10°C° 0 mm 0 mps 731 mmHg 64%
    02:00 +11°C° 0 mm 1 mps 731 mmHg 62%
    03:00 +11°C° 0 mm 1 mps 731 mmHg 60%
    04:00 +10°C° 0 mm 1 mps 731 mmHg 58%
    05:00 +11°C° 0 mm 1 mps 732 mmHg 58%
    06:00 +12°C° 0 mm 1 mps 732 mmHg 58%
    07:00 +12°C° 0 mm 1 mps 732 mmHg 57%
    08:00 +14°C° 0 mm 1 mps 732 mmHg 53%
    09:00 +16°C° 0 mm 1 mps 733 mmHg 49%
    10:00 +18°C° 0 mm 1 mps 733 mmHg 45%
    11:00 +19°C° 0.1 mm 1 mps 733 mmHg 44%
    12:00 +18°C° 0.1 mm 2 mps 733 mmHg 43%
    13:00 +19°C° 0.1 mm 2 mps 733 mmHg 42%
    14:00 +18°C° 0.3 mm 2 mps 734 mmHg 44%
    15:00 +18°C° 0.3 mm 2 mps 734 mmHg 47%
    16:00 +17°C° 0.3 mm 2 mps 734 mmHg 49%
    17:00 +16°C° 0 mm 2 mps 734 mmHg 52%
    18:00 +14°C° 0 mm 2 mps 735 mmHg 56%
    19:00 +13°C° 0 mm 2 mps 735 mmHg 59%
    20:00 +11°C° 0 mm 3 mps 736 mmHg 59%
    21:00 +11°C° 0 mm 3 mps 736 mmHg 59%
    22:00 +10°C° 0 mm 3 mps 737 mmHg 58%
    23:00 +9°C° 0 mm 3 mps 737 mmHg 60%

    27 Marzo, Miércoles

    Tiempo Temperatura Precipitaciones Viento Presión Humedad
    00:00 +9°C° 0 mm 3 mps 737 mmHg 61%
    01:00 +8°C° 0 mm 3 mps 737 mmHg 62%
    02:00 +8°C° 0 mm 3 mps 737 mmHg 61%
    03:00 +7°C° 0 mm 3 mps 737 mmHg 60%
    04:00 +7°C° 0 mm 3 mps 737 mmHg 60%
    05:00 +7°C° 0 mm 3 mps 738 mmHg 57%
    06:00 +8°C° 0 mm 3 mps 738 mmHg 54%
    07:00 +8°C° 0 mm 3 mps 738 mmHg 51%
    08:00 +10°C° 0 mm 3 mps 738 mmHg 46%
    09:00 +12°C° 0 mm 3 mps 738 mmHg 40%
    10:00 +14°C° 0 mm 3 mps 739 mmHg 35%
    11:00 +16°C° 0 mm 2 mps 739 mmHg 35%
    12:00 +17°C° 0 mm 2 mps 738 mmHg 34%
    13:00 +19°C° 0 mm 1 mps 738 mmHg 34%
    14:00 +17°C° 0 mm 2 mps 738 mmHg 36%
    15:00 +17°C° 0 mm 2 mps 738 mmHg 38%
    16:00 +17°C° 0 mm 2 mps 738 mmHg 39%
    17:00 +15°C° 0 mm 2 mps 738 mmHg 44%
    18:00 +14°C° 0 mm 2 mps 738 mmHg 49%
    19:00 +13°C° 0 mm 2 mps 738 mmHg 53%
    20:00 +11°C° 0 mm 3 mps 738 mmHg 55%
    21:00 +11°C° 0 mm 3 mps 739 mmHg 57%
    22:00 +10°C° 0 mm 3 mps 739 mmHg 58%
    23:00 +10°C° 0 mm 3 mps 739 mmHg 60%

    28 Marzo, Jueves

    Tiempo Temperatura Precipitaciones Viento Presión Humedad
    00:00 +10°C° 0 mm 3 mps 739 mmHg 61%
    01:00 +10°C° 0 mm 3 mps 739 mmHg 62%
    02:00 +9°C° 0 mm 3 mps 739 mmHg 63%
    03:00 +9°C° 0 mm 3 mps 738 mmHg 65%
    04:00 +9°C° 0 mm 3 mps 738 mmHg 66%
    05:00 +9°C° 0 mm 3 mps 738 mmHg 65%
    06:00 +8°C° 0 mm 4 mps 739 mmHg 65%
    07:00 +10°C° 0 mm 4 mps 739 mmHg 64%
    08:00 +11°C° 0 mm 4 mps 739 mmHg 58%
    09:00 +13°C° 0 mm 4 mps 739 mmHg 52%
    10:00 +14°C° 0 mm 5 mps 740 mmHg 46%
    11:00 +15°C° 0 mm 5 mps 740 mmHg 44%
    12:00 +15°C° 0 mm 5 mps 740 mmHg 42%
    13:00 +16°C° 0 mm 5 mps 739 mmHg 40%
    14:00 +15°C° 0 mm 4 mps 739 mmHg 41%
    15:00 +15°C° 0 mm 4 mps 739 mmHg 41%
    16:00 +15°C° 0 mm 4 mps 739 mmHg 41%
    17:00 +13°C° 0 mm 4 mps 739 mmHg 46%
    18:00 +12°C° 0 mm 3 mps 739 mmHg 50%
    19:00 +11°C° 0 mm 3 mps 740 mmHg 55%
    20:00 +10°C° 0 mm 3 mps 740 mmHg 58%
    21:00 +9°C° 0 mm 3 mps 740 mmHg 61%
    22:00 +9°C° 0 mm 3 mps 740 mmHg 64%
    23:00 +9°C° 0 mm 3 mps 741 mmHg 66%
    Mostrar más